Regional Weather Roundup
Issued by NWS Charleston, SC

Current Version | Previous Version | Text Only | Print | Product List | Glossary Off
Versions: 1 2 3 4 5 6 7 8 9 10 11 12 13 14 15 16 17 18 19 20 21 22 23 24 25 26 27 28 29 30 31 32 33 34 35 36 37 38 39 40 41 42 43 44 45 46 47 48 49 50

803
ASUS42 KCHS 230927
RWRCHS

REGIONAL WEATHER ROUNDUP
NATIONAL WEATHER SERVICE CHARLESTON SC
500 AM EDT WED AUG 23 2017

NOTE: "FAIR" INDICATES FEW OR NO CLOUDS BELOW 12,000 FEET WITH NO
SIGNIFICANT WEATHER AND/OR OBSTRUCTIONS TO VISIBILITY.

NOT ALL STATIONS ARE QUALITY CONTROLLED. USE DATA WITH CAUTION...
ESPECIALLY DEWPOINT OBSERVATIONS.

SCZ027-030-031-034>040-042>050-231000-
...SOUTHEAST SOUTH CAROLINA...

CITY           SKY/WX    TMP DP  RH WIND       PRES   REMARKS
N CHARLESTON   PTCLDY    77  76  96 W5        29.94F
WATERFRONT PRK   N/A     80  77  90 VRB2      29.78F
JOHNS ISLAND   FAIR      79  77  94 CALM      29.94F
PINOPOLIS        N/A     79  75  89 SW6       29.87F
MONCKS CORNER  FAIR      75  73  94 SW6       29.94S
SUMMERVILLE    FAIR      73  73 100 CALM      29.96R
BEAUFORT MCAS  CLEAR     77  77 100 SW5       29.95F
BEAUFORT ARPT  FAIR      79  75  89 SW5       29.95S
HILTON HEAD IS CLEAR     79  77  94 SW5       29.96S
WALTERBORO     SUNNY     73  73 100 SW5       29.96S
ALLENDALE      NOT AVBL

...SOUTHERN MIDLANDS AND PEE DEE...

CITY           SKY/WX    TMP DP  RH WIND       PRES   REMARKS
GEORGETOWN     FAIR      73  73 100 SW5       29.95S THUNDER
KINGSTREE      FAIR      73  72  94 CALM      29.93S
ORANGEBURG     CLEAR     74  72  93 SW5       29.94F
BARNWELL       FAIR      77  75  94 SW5       29.95S
AIKEN          FAIR      72  72 100 CALM      29.98S
MANNING        FAIR      75  70  83 CALM      29.94S
COLUMBIA       PTCLDY    76  72  87 W5        29.92S
SUMTER         CLEAR     76  73  91 SW5       29.90F
FLORENCE       MOCLDY    76  76 100 SW6       29.92F
MYRTLE BEACH   PTCLDY    77  75  93 W7        29.94F
N MYRTLE BEACH MOCLDY    78  75  90 W6        29.92F

$$

GAZ063-065-086>088-099>101-113>116-118-119-134>141-150-231000-
...SOUTHEAST GEORGIA...

CITY           SKY/WX    TMP DP  RH WIND       PRES   REMARKS
SAVANNAH ARPT  CLEAR     77  75  93 SW3       29.96F
HUNTER AAF     PTCLDY    77  75  94 SW3       29.94S
FORT STEWART   CLEAR     76  73  89 CALM      29.94S
STATESBORO     CLEAR     76  74  93 CALM      29.95F
SYLVANIA         N/A     73  73 100 CALM      29.96F
CLAXTON        FAIR      75  74  98 CALM      29.96S FOG

...CSRA...CENTRAL AND FAR SOUTHEAST GEORGIA...

CITY           SKY/WX    TMP DP  RH WIND       PRES   REMARKS
THOMSON        CLEAR     74  72  96 NW3       29.99F
AUGUSTA-BUSH   CLEAR     77  73  87 CALM      29.93F
AUGUSTA-DANIEL CLEAR     77  71  82 SW5       29.95S
SWAINSBORO     FAIR      73  73 100 CALM      29.96F
VIDALIA        CLEAR     75  73  94 SW5       29.96F
EASTMAN        FAIR      75  75 100 CALM      29.98F
HAZLEHURST     FAIR      77  74  91 CALM      29.95F
ALMA           CLEAR     74  72  93 CALM      29.97S
WAYCROSS       CLEAR     75  72  90 SW3       29.98R
JESUP          FAIR      75  72  88 CALM      29.97S
BAXLEY         FAIR      72  72 100 CALM      29.97S
BRUNSWICK      PTCLDY    77  73  88 SW5       29.98S
SAINT SIMONS   CLEAR     80  77  90 SW8       29.97S

$$

SCZ027-028-034-036>038-045-046-048>050-GAZ119-141-231000-
...LAKE AND SUPPLEMENTAL COASTAL OBSERVATIONS...

STATION/POSITION TIME  TEMP    WIND        PRES    WAVE   SWELL
                       AIR SEA DIR/SP/G            HT/PER HT/PER/DIR
                 (UTC) (F)     (DEG/KT/KT) (MB)    (FT/S) (FT/S/D)
WINYAH BAY       0845   79     250/  5     1014.0S
LAKE MURRAY      0920   80     240/  9/ 13 1012.2
ACE BASIN NERRS  0845   78        CALM     1014.0F
FORT PULASKI     0900   79 86  250/  3/  5 1014.7
SAPELO ISLAND    0900   80     230/  5     1015.0

$$

ANZ835-935-AMZ111-154-330-350-352-354-370-450-454-472-231000-
...C-MAN AND BUOY OBSERVATIONS...

STATION/POSITION TIME  TEMP    WIND        PRES    WAVE   SWELL
                       AIR SEA DIR/SP/G            HT/PER HT/PER/DIR
                 (UTC) (F)     (DEG/KT/KT) (MB)    (FT/S) (FT/S/D)
BUOY 41004       0910   83 84  230/ 14/ 16 1013.6
BUOY 41008       0850   84 85  200/ 12/ 16 1014.2F   3/ 9   3/ 80/ 9
FOLLY BEACH CMAN 0900   81     260/  4/  5 1014.5F
CAPERS NEARSHORE 0908   82 86  250/ 14/ 19 1013.5F
FRIPP NEARSHORE  0908   84     250/ 12/ 16 1013.8F


STATION/POSITION TIME  TEMP    WIND        PRES    WAVE   SWELL
                       AIR SEA DIR/SP/G            HT/PER HT/PER/DIR
                 (UTC) (F)     (DEG/KT/KT) (MB)    (FT/S) (FT/S/D)
5E ST. MARYS GA  0900      84                N/A     3/ 9   2/120/11
FRYING PAN BUOY  0910   83 84  220/ 16/ 17 1013.2
BUOY 41025       0850   83 85  250/ 17/ 19 1012.8F   4/ 8   3/140/ 8
CAPE LOOKOUT NC  0900   82     240/ 11/ 13 1012.7F
BUOY 41002       0850   82 84  210/  4/  6 1014.8F   3/ 8   3/ 90/ 8
BUOY 41010       0910   84 85  160/  8/ 10 1014.1
ST AUGUSTINE FL  0900   78 82  270/  4/  5 1015.0F


$$




USA.gov is the U.S. government's official web portal to all federal, state and local government web resources and services.